Jackson Hawkins Field, MS

8:07 PM CDT on March 30, 2017 (GMT -0500)
Hawkins

Weather History for KHKS - August, 2014

Change the Weather History Date:

Friday, August 15, 2014

  Actual Average (KJAN) Record (KJAN)
Temperature  
Mean Temperature 76 °F -  
Max Temperature 89 °F 92 °F 105 °F (1902)
Min Temperature 66 °F 70 °F 54 °F (2004)
Cooling Degree Days 12    
Growing Degree Days 26 (Base 50)    
Moisture  
Dew Point 64 °F    
Average Humidity 66    
Maximum Humidity 90    
Minimum Humidity 43    
Precipitation  
Precipitation 0.00 in - - ()
Sea Level Pressure  
Sea Level Pressure 30.00 in    
Wind  
Wind Speed 1 mph (WNW)    
Max Wind Speed 6 mph    
Max Gust Speed -    
Visibility 10 miles    
Events      
Averages and records for this station are not official NWS values.
T = Trace of Precipitation, MM = Missing Value Source: NWS Daily Summary

Daily Weather History Graph

Daily Weather History Graph

Search for Another Location

Airport or City:

Trip Planner

Search our weather history database for the weather conditions in past years. The results will help you decide how hot, cold, wet, or windy it might be!

Date:

Astronomy

Aug. 15, 2014 Rise Set
Actual Time 6:24 AM CDT 7:45 PM CDT
Civil Twilight 5:59 AM CDT 8:11 PM CDT
Nautical Twilight 5:28 AM CDT 8:41 PM CDT
Astronomical Twilight 4:56 AM CDT 9:13 PM CDT
Moon 11:10 PM CDT (8/15) 11:45 AM CDT (8/15)
Length of Visible Light 14h 11m
Length of Day
13h 20m
Waning Gibbous, 69% of the Moon is Illuminated
Aug 15
Waning Gibbous
Aug 17
Last Quarter
Aug 25
New
Sep 2
First Quarter
Sep 8
Full

Hourly Weather History & Observations

Time (CDT) Temp. Heat Index Dew Point Humidity Pressure Visibility Wind Dir Wind Speed Gust Speed Precip Events Conditions
12:53 AM 70.0 °F - 63.0 °F 78% 30.00 in 10.0 mi Calm Calm - N/A   Clear
1:53 AM 68.0 °F - 64.0 °F 87% 30.00 in 10.0 mi Calm Calm - N/A   Clear
2:53 AM 66.9 °F - 63.0 °F 87% 29.99 in 10.0 mi Calm Calm - N/A   Clear
3:53 AM 66.9 °F - 63.0 °F 87% 29.99 in 10.0 mi Calm Calm - N/A   Clear
4:53 AM 66.0 °F - 63.0 °F 90% 30.00 in 10.0 mi Calm Calm - N/A   Clear
5:53 AM 66.0 °F - 63.0 °F 90% 30.01 in 9.0 mi Calm Calm - N/A   Clear
6:53 AM 66.0 °F - 63.0 °F 90% 30.04 in 7.0 mi Calm Calm - N/A   Clear
7:53 AM 71.1 °F - 66.0 °F 84% 30.05 in 10.0 mi Calm Calm - N/A   Clear
9:53 AM 80.1 °F 81.5 °F 63.0 °F 56% 30.05 in 10.0 mi East 3.5 mph - N/A   Clear
10:53 AM 84.0 °F 85.4 °F 64.0 °F 51% 30.05 in 10.0 mi Calm Calm - N/A   Clear
11:53 AM 84.0 °F 84.5 °F 62.1 °F 47% 30.04 in 10.0 mi Calm Calm - N/A   Clear
12:53 PM 86.0 °F 86.3 °F 62.1 °F 44% 30.01 in 10.0 mi Variable 3.5 mph - N/A   Clear
1:53 PM 87.1 °F 88.3 °F 64.0 °F 46% 30.00 in 10.0 mi West 5.8 mph - N/A   Clear
2:53 PM 86.0 °F 86.3 °F 62.1 °F 44% 29.99 in 10.0 mi West 4.6 mph - N/A   Clear
3:53 PM 86.0 °F 86.1 °F 61.0 °F 43% 29.97 in 10.0 mi Calm Calm - N/A   Clear
4:53 PM 87.1 °F 87.5 °F 62.1 °F 43% 29.97 in 10.0 mi SW 3.5 mph - N/A   Clear
5:53 PM 86.0 °F 86.3 °F 62.1 °F 44% 29.97 in 10.0 mi NW 4.6 mph - N/A   Clear
6:53 PM 84.9 °F 85.9 °F 63.0 °F 48% 29.96 in 10.0 mi North 4.6 mph - N/A   Clear
7:53 PM 80.1 °F 81.9 °F 64.9 °F 60% 29.96 in 10.0 mi Calm Calm - N/A   Clear
8:53 PM 78.1 °F - 66.0 °F 66% 29.96 in 10.0 mi NW 3.5 mph - N/A   Clear
9:53 PM 75.0 °F - 66.9 °F 76% 29.97 in 10.0 mi Calm Calm - N/A   Clear
10:53 PM 73.0 °F - 66.9 °F 81% 29.97 in 10.0 mi Calm Calm - N/A   Clear